Location: Hartford
(41.7640°N, 72.6860°W)
Time: 14:48:36
(UTC-04:00)

ISS - All Passes

Search period start: 19 August 2017 00:00
Search period end: 29 August 2017 00:00
Orbit: 401 x 408 km, 51.6° (Epoch: 20 August)

Date Brightness Start Highest point End Pass type
(mag) Time Alt. Az. Time Alt. Az. Time Alt. Az.
19 Aug - 11:17:37 10° SW 11:20:53 83° SSE 11:24:11 10° NE daylight
19 Aug - 12:55:06 10° WNW 12:57:42 21° NNW 13:00:19 10° NE daylight
19 Aug - 14:33:09 10° NW 14:35:05 15° N 14:37:02 10° NE daylight
19 Aug - 16:09:31 10° NW 16:12:23 27° NNE 16:15:14 10° E daylight
19 Aug - 17:45:50 10° WNW 17:48:59 47° SW 17:52:08 10° SE daylight
20 Aug - 10:25:35 10° SSW 10:28:43 42° SE 10:31:51 10° ENE daylight
20 Aug - 12:02:21 10° W 12:05:17 29° NNW 12:08:13 10° NE daylight
20 Aug - 13:40:35 10° NW 13:42:33 15° N 13:44:30 10° NNE daylight
20 Aug - 15:17:24 10° NW 15:19:56 20° NNE 15:22:29 10° ENE daylight
20 Aug - 16:53:31 10° NW 16:56:47 88° NNE 17:00:03 10° SE daylight
20 Aug - 18:32:06 10° WSW 18:32:47 10° SW 18:33:27 10° SW daylight
21 Aug - 09:33:58 10° S 09:36:36 22° SE 09:39:15 10° E daylight
21 Aug - 11:09:44 10° WSW 11:12:55 44° NNW 11:16:05 10° NE daylight
21 Aug - 12:47:50 10° NW 12:50:01 16° N 12:52:11 10° NNE daylight
21 Aug - 14:25:13 10° NNW 14:27:26 17° N 14:29:39 10° NE daylight
21 Aug - 16:01:19 10° NW 16:04:30 49° NNE 16:07:41 10° ESE daylight
21 Aug - 17:38:18 10° W 17:40:45 20° SW 17:43:12 10° S daylight
22 Aug - 08:43:12 10° SSE 08:44:33 12° SE 08:45:55 10° ESE daylight
22 Aug - 10:17:19 10° WSW 10:20:36 79° NNW 10:23:53 10° NE daylight
22 Aug - 11:55:00 10° WNW 11:57:29 20° NNW 11:59:59 10° NNE daylight
22 Aug - 13:32:54 10° NNW 13:34:53 15° N 13:36:52 10° NE daylight
22 Aug - 15:09:09 10° NW 15:12:07 31° NNE 15:15:05 10° E daylight
22 Aug - 16:45:36 10° WNW 16:48:38 37° SW 16:51:41 10° SSE daylight
23 Aug - 09:25:08 10° SW 09:28:21 54° SE 09:31:34 10° ENE daylight
23 Aug - 11:02:10 10° W 11:05:00 26° NNW 11:07:49 10° NE daylight
23 Aug - 12:40:22 10° NW 12:42:18 15° N 12:44:15 10° NE daylight
23 Aug - 14:17:00 10° NW 14:19:40 22° NNE 14:22:19 10° ENE daylight
23 Aug - 15:53:10 10° WNW 15:56:26 74° SW 15:59:41 10° SE daylight
24 Aug - 08:33:18 10° SSW 08:36:10 28° SE 08:39:02 10° ENE daylight
24 Aug - 10:09:28 10° W 10:12:33 38° NNW 10:15:40 10° NE daylight
24 Aug - 11:47:38 10° NW 11:49:43 16° N 11:51:49 10° NNE daylight
24 Aug - 13:24:49 10° NNW 13:27:09 18° NNE 13:29:28 10° ENE daylight
24 Aug - 15:00:53 10° NW 15:04:08 59° NNE 15:07:22 10° ESE daylight
24 Aug - 16:38:12 10° W 16:40:18 16° SW 16:42:23 10° S daylight
25 Aug - 07:42:04 10° S 07:44:03 15° SE 07:46:02 10° E daylight
25 Aug - 09:16:55 10° WSW 09:20:11 64° NNW 09:23:28 10° NE daylight
25 Aug - 10:54:46 10° WNW 10:57:09 18° NNW 10:59:32 10° NNE daylight
25 Aug - 12:32:31 10° NNW 12:34:34 15° N 12:36:37 10° NE daylight
25 Aug - 14:08:41 10° NW 14:11:45 36° NNE 14:14:48 10° E daylight
25 Aug - 15:45:16 10° WNW 15:48:10 30° SW 15:51:04 10° SSE daylight
26 Aug - 08:24:37 10° SW 08:27:52 69° SE 08:31:08 10° ENE daylight
26 Aug - 10:01:53 10° WNW 10:04:36 23° NNW 10:07:19 10° NE daylight
26 Aug - 11:40:01 10° NW 11:41:57 15° N 11:43:53 10° NE daylight
26 Aug - 13:16:30 10° NW 13:19:16 25° NNE 13:22:03 10° ENE daylight
26 Aug - 14:52:44 10° WNW 14:55:57 58° SW 14:59:09 10° SE daylight
27 Aug - 07:32:36 10° SSW 07:35:37 35° SE 07:38:39 10° ENE daylight
27 Aug - 09:09:06 10° W 09:12:07 32° NNW 09:15:07 10° NE daylight
27 Aug - 10:47:18 10° NW 10:49:19 15° N 10:51:21 10° NNE daylight
27 Aug - 12:24:17 10° NNW 12:26:44 19° NNE 12:29:10 10° ENE daylight
27 Aug - 14:00:22 10° NW 14:03:39 73° NE 14:06:54 10° ESE daylight
27 Aug - 15:38:08 10° WSW 15:39:42 13° SW 15:41:16 10° SSW daylight
28 Aug - 06:41:04 10° S 06:43:27 19° SE 06:45:50 10° E daylight
28 Aug - 08:16:27 10° WSW 08:19:40 52° NNW 08:22:54 10° NE daylight
28 Aug - 09:54:26 10° NW 09:56:42 17° NNW 09:58:58 10° NNE daylight
28 Aug - 11:31:59 10° NNW 11:34:08 16° N 11:36:16 10° NE daylight
28 Aug - 13:08:06 10° NW 13:11:15 42° NNE 13:14:22 10° ESE daylight
28 Aug - 14:44:52 10° WNW 14:47:34 24° SW 14:50:16 10° S daylight
